Wind_Speed
39 39 39 40 41 42 42 42 42 43 43 43 42 40 39 37 36 37 38 38 38 38 39 39 39 39 39 39 39 40 40 40 40 40 39 39 38 38 38 37 37 37 38 38 39 39 40 40 41 42 42 43
40 40 40 41 41 41 40 40 41 42 42 42 40 39 38 37 37 37 37 37 37 38 38 38 39 40 40 40 39 39 39 40 40 39 39 39 39 38 38 38 38 38 38 38 38 39 39 39 40 41 42 42
42 41 41 42 42 40 40 40 41 41 41 41 40 39 38 38 38 38 37 37 37 38 38 38 40 41 42 41 40 39 39 40 40 40 39 39 39 40 40 40 40 40 40 40 40 40 40 40 40 41 42 43
43 43 42 42 42 41 40 40 41 41 40 40 39 39 39 39 38 38 37 37 38 39 40 41 43 44 44 43 42 41 41 41 41 41 41 41 41 42 42 42 42 42 42 42 42 42 42 42 42 43 44 44
43 43 43 42 42 40 40 40 40 40 39 39 38 39 39 39 38 38 38 39 40 41 42 44 44 45 45 45 44 43 43 43 43 43 44 44 44 44 44 44 43 43 43 42 42 42 43 43 44 45 45 45
43 43 43 42 41 40 40 39 39 39 39 38 38 38 38 39 39 39 40 41 42 43 44 45 45 46 46 46 45 44 44 43 44 43 43 43 43 43 42 42 42 41 41 41 42 42 43 43 44 44 45 45
44 43 43 42 41 40 40 39 39 39 39 39 38 38 38 39 40 41 41 42 43 44 45 46 46 46 46 46 46 44 43 42 42 41 40 40 40 40 40 40 40 40 41 41 42 42 43 43 43 44 44 45
44 44 43 42 41 41 40 39 39 39 39 39 39 39 39 39 40 41 42 42 43 44 45 45 45 45 45 45 44 43 41 40 39 38 38 38 39 39 39 40 41 41 42 42 43 43 43 44 44 45 45 45
45 44 44 42 42 41 40 40 39 39 39 39 39 39 39 40 41 42 42 43 43 44 45 45 44 44 44 44 43 42 40 39 39 39 38 38 39 40 40 41 42 42 43 43 44 44 44 45 45 45 45 46
45 45 44 43 42 41 40 40 38 38 38 39 40 40 40 40 41 42 42 43 43 44 44 44 44 44 44 44 43 42 40 40 40 40 40 40 40 41 42 42 43 43 44 44 44 45 45 45 45 46 46 47
46 45 44 42 41 41 40 39 38 38 38 39 39 39 40 40 41 42 42 43 43 44 44 44 44 45 45 45 44 43 41 40 40 40 41 42 42 42 43 43 43 44 44 44 45 45 45 46 46 47 47 48
47 45 44 43 42 41 40 40 39 39 39 39 38 38 39 40 41 42 42 43 44 44 44 44 45 46 46 46 45 44 43 42 42 43 43 43 43 43 44 44 44 45 45 45 46 46 46 47 47 48 48 49
48 46 44 43 43 42 41 40 40 41 40 39 38 39 39 40 41 42 42 43 44 44 45 45 45 46 46 46 45 45 45 45 45 45 45 45 45 45 45 45 46 46 47 47 47 48 48 48 49 49 49 49
47 47 46 45 44 44 43 42 42 42 41 40 40 40 41 41 42 42 43 44 45 45 46 45 46 47 47 46 45 45 46 46 46 46 46 46 47 47 47 47 47 48 48 48 49 49 49 50 50 50 51 51
46 47 47 46 45 45 44 42 43 44 42 41 41 41 42 43 44 44 44 45 46 47 47 47 47 47 47 46 46 46 46 47 48 48 48 48 48 48 49 49 49 49 49 49 50 50 50 51 51 52 53 53
46 46 46 45 44 43 44 43 43 44 41 41 41 42 43 44 45 45 45 47 48 48 49 49 49 49 48 46 46 46 47 47 48 49 49 49 49 50 50 50 50 50 51 51 51 52 52 53 53 54 55 55
46 45 44 44 42 42 44 44 44 42 40 41 43 43 45 47 47 47 47 47 48 49 48 49 49 49 48 46 46 47 48 48 49 50 50 50 50 51 51 51 52 52 53 53 53 54 54 55 55 56 57 57
48 46 45 45 43 43 44 44 44 43 42 43 44 45 45 46 46 48 48 46 47 48 48 49 49 48 47 47 48 49 50 50 51 51 51 51 51 52 52 53 53 53 54 54 54 55 56 56 57 58 58 59
49 49 48 47 43 40 42 44 45 45 44 43 43 42 42 44 46 48 48 47 46 48 50 50 50 49 49 49 50 51 52 52 52 52 52 52 53 54 54 54 54 54 54 55 56 56 57 58 59 60 60 61
51 50 48 47 44 43 46 49 48 45 43 41 41 42 42 46 50 50 50 50 50 51 53 53 52 52 52 52 53 53 53 53 54 54 54 54 55 56 56 56 55 55 55 56 57 58 59 60 61 61 62 63
53 52 50 49 49 50 52 53 49 46 45 45 47 47 47 50 52 52 52 53 53 53 55 55 54 55 55 55 54 54 54 55 55 55 56 56 56 56 57 57 57 56 56 57 57 58 59 60 61 62 63 64
53 52 52 52 53 53 53 52 49 47 48 49 50 49 49 51 53 54 53 53 55 56 57 57 57 57 57 56 55 55 56 57 57 56 57 57 56 56 57 57 56 56 56 56 57 58 59 60 62 63 64 64
51 51 51 53 55 54 52 53 51 49 50 52 51 49 48 50 51 53 55 55 56 58 59 58 58 58 57 57 57 57 58 59 59 58 58 58 57 57 57 57 57 57 58 59 59 59 61 62 62 63 64 64
47 49 50 51 53 53 53 53 51 50 52 54 55 55 55 55 55 55 56 57 57 58 59 59 59 58 57 57 58 58 58 58 58 58 58 58 59 59 59 59 60 58 58 59 61 61 63 64 64 64 64 64
46 47 48 48 48 49 50 51 50 50 53 54 55 56 56 56 55 55 56 57 57 58 59 60 59 58 58 57 57 58 57 56 55 57 58 59 59 60 60 60 59 56 56 59 62 63 65 66 66 66 65 65
46 47 48 48 47 47 47 49 50 51 52 53 53 53 53 53 53 53 55 56 57 57 59 59 58 58 58 57 57 58 57 57 56 57 58 59 59 59 60 59 58 58 59 62 64 65 67 67 67 67 66 66
48 48 49 50 49 48 48 49 51 52 53 53 52 52 52 53 52 52 53 52 52 54 57 58 58 58 59 59 59 59 58 58 58 59 59 60 60 60 59 59 60 61 62 63 64 65 67 67 68 68 68 67
50 49 49 49 50 49 50 51 52 54 55 55 55 55 55 55 53 51 52 50 47 50 58 63 63 63 62 61 60 60 59 58 59 60 60 60 60 59 59 60 61 61 61 62 64 65 67 68 69 69 68 68
52 52 51 50 50 50 51 52 53 54 56 56 57 57 57 56 55 55 57 58 58 60 64 67 67 66 65 62 60 60 60 60 60 60 59 58 58 58 59 60 60 60 61 63 64 66 67 68 69 70 71 71
54 54 54 54 53 52 52 53 54 55 56 58 58 57 57 57 57 59 61 62 64 66 67 65 63 62 62 61 61 61 61 61 60 59 57 57 58 59 60 60 61 62 64 65 66 67 69 70 71 73 74 75
54 54 54 55 55 56 56 57 57 57 56 56 55 54 54 55 57 59 61 61 64 66 66 64 61 60 59 60 61 62 62 62 61 58 57 58 60 61 62 63 64 65 66 67 68 69 70 72 74 75 76 76
Wind_Direction
243 244 245 245 245 247 248 250 251 252 252 253 254 255 255 254 254 253 253 254 255 256 257 258 259 259 260 260 261 263 264 266 267 268 269 270 271 272 274 275 275 276 277 277 277 278 279 279 280 280 281 281
245 244 245 246 247 248 249 250 251 251 252 253 254 254 254 254 253 253 253 253 254 255 256 257 258 258 259 259 261 262 264 265 266 268 269 270 271 272 273 274 275 276 277 277 277 278 278 279 279 280 280 281
248 247 247 248 248 248 249 250 250 251 252 253 254 254 254 253 253 253 253 254 255 255 256 256 257 257 258 259 260 261 263 265 266 267 268 269 270 271 272 273 274 275 276 276 277 278 278 278 279 279 279 280
250 250 250 250 250 250 250 250 251 252 253 253 254 254 254 254 254 254 254 255 255 256 256 256 256 257 258 259 260 261 263 264 265 266 267 268 269 270 271 272 273 274 275 276 277 277 277 277 277 278 278 279
251 251 251 252 253 253 253 253 253 254 254 254 255 255 255 255 255 255 255 255 255 255 255 256 257 258 259 260 261 262 263 264 265 266 267 268 269 270 272 272 273 274 274 275 275 276 276 276 276 277 278 278
252 251 252 253 254 254 255 256 256 256 256 255 255 255 255 255 255 254 254 254 255 255 256 257 258 259 260 261 261 262 263 264 266 267 268 269 270 271 271 272 273 273 274 274 274 274 275 276 277 278 279 280
254 253 253 253 254 255 255 256 256 255 255 255 254 254 254 253 254 253 253 254 255 256 257 258 259 260 262 263 264 265 265 267 268 269 270 270 270 270 270 271 271 272 273 274 274 275 276 277 278 279 279 280
254 255 254 254 254 254 254 254 254 254 254 254 253 253 252 252 253 254 254 255 256 257 258 260 261 262 264 266 268 268 268 268 269 270 270 270 270 269 270 270 271 271 273 274 275 276 277 278 278 279 279 280
253 254 254 254 253 253 253 253 253 253 253 253 253 253 253 253 254 255 256 256 257 258 260 261 262 263 264 266 268 269 269 270 270 270 271 271 270 270 270 271 271 272 273 274 275 276 277 277 278 279 279 280
251 252 253 253 253 254 254 254 253 253 252 252 253 253 253 254 255 256 257 258 259 260 262 263 264 265 266 266 267 268 269 269 270 271 271 271 271 271 272 272 273 273 274 274 275 276 277 277 278 279 280 280
249 251 252 253 253 254 254 255 254 253 252 252 253 254 254 255 256 256 258 259 260 261 262 264 265 266 267 267 268 268 269 270 271 271 272 272 272 272 273 273 273 273 274 274 275 275 276 277 278 279 279 280
249 250 252 253 253 253 254 255 254 253 253 254 254 254 254 255 256 256 257 258 259 260 262 263 265 266 267 268 269 271 272 272 273 273 273 273 273 273 273 273 273 273 273 274 274 275 276 276 277 278 278 279
249 249 251 253 253 253 254 254 255 255 255 255 254 254 254 255 256 257 257 257 258 259 261 262 264 265 267 268 270 272 273 273 273 272 273 273 273 273 273 273 273 274 274 275 275 276 277 277 278 279 279 280
249 249 250 251 252 253 254 254 255 257 257 256 255 254 254 254 255 256 258 258 259 260 261 262 263 265 266 268 269 271 271 272 272 272 272 272 273 273 273 273 274 274 275 275 276 277 278 279 279 280 281 282
247 249 250 249 250 250 251 253 256 257 256 255 255 255 255 255 255 255 256 257 259 260 261 262 263 264 266 268 269 270 270 271 272 272 272 272 273 273 274 274 275 275 276 276 277 278 279 279 280 281 282 283
246 247 248 248 247 248 250 254 256 255 254 254 255 256 257 257 257 256 256 257 258 259 261 263 264 264 266 268 269 269 270 271 271 272 273 273 274 274 275 275 276 276 277 278 278 279 280 281 282 282 283 284
243 243 245 246 248 252 255 255 253 251 252 254 256 258 259 260 260 259 258 258 259 260 261 262 264 266 267 268 269 270 271 271 272 273 274 274 275 275 275 276 276 277 278 279 280 281 281 282 283 283 284 284
240 241 243 246 251 254 253 250 249 248 251 256 259 261 261 260 259 259 259 258 259 261 262 263 265 267 269 270 271 272 272 274 275 275 276 276 276 275 275 275 276 277 278 279 280 281 282 282 282 283 283 283
236 238 242 245 249 249 246 246 247 249 252 255 258 258 256 255 256 257 258 258 260 263 264 265 267 269 270 272 273 273 275 276 276 277 277 277 276 276 276 276 277 278 279 280 281 281 282 282 283 283 283 283
234 236 239 242 243 244 246 248 249 249 251 251 250 249 248 251 254 256 258 261 263 264 265 267 268 270 271 272 273 274 275 276 276 277 277 277 277 277 277 277 277 278 279 279 280 281 282 282 283 283 283 283
233 235 237 238 239 240 244 248 249 249 250 249 249 248 249 252 256 259 262 265 265 264 265 268 270 271 272 272 273 274 275 275 275 276 276 275 275 275 275 276 277 277 278 279 279 280 281 282 282 282 283 283
234 234 236 237 239 240 243 247 250 251 251 251 251 253 254 255 257 260 262 263 263 265 266 268 270 271 271 272 273 273 273 274 274 274 274 273 274 274 275 275 276 277 278 279 279 280 281 281 281 281 281 281
234 234 236 238 240 242 245 248 250 251 250 250 250 250 251 253 257 261 263 263 264 267 268 268 269 269 270 271 272 273 272 273 273 273 272 273 273 273 274 274 275 277 278 279 279 280 280 280 281 280 280 280
233 234 235 237 239 241 243 246 248 248 248 250 250 250 251 254 259 262 264 265 266 267 267 267 268 268 269 269 270 271 272 272 272 272 273 273 273 274 274 275 276 277 279 280 280 279 279 279 280 280 281 281
233 235 237 238 238 239 240 242 244 245 246 248 250 253 254 256 259 262 264 265 265 266 266 267 268 268 268 269 271 273 275 275 274 274 274 275 275 276 276 277 277 276 277 277 277 277 278 279 280 280 281 281
237 239 242 242 242 241 241 243 245 246 248 249 251 254 257 258 260 262 265 266 267 267 266 267 268 269 271 273 276 278 279 278 277 276 276 276 276 276 277 278 277 275 274 274 274 275 277 278 279 280 280 280
239 240 242 245 246 247 248 248 249 250 251 252 253 255 257 259 262 266 269 269 271 271 269 267 267 271 274 276 278 279 278 277 276 275 275 275 275 275 276 277 277 276 275 276 276 276 277 278 279 279 280 281
243 242 242 244 246 247 250 251 252 253 254 254 255 255 257 259 262 267 268 265 267 268 268 268 270 273 274 274 275 276 276 274 274 275 275 276 276 276 276 276 277 277 278 278 278 279 279 279 280 280 281 282
250 248 248 247 247 247 247 248 249 251 253 255 256 257 259 260 260 260 260 259 260 263 265 268 272 274 275 274 274 275 274 274 274 275 276 277 277 277 276 276 277 278 279 279 279 280 280 281 281 282 282 283
255 254 252 251 250 249 248 249 249 250 253 255 258 260 262 263 262 261 262 262 263 264 266 269 273 276 277 277 276 275 275 275 275 274 274 275 276 276 276 277 278 279 280 280 280 280 281 281 282 283 283 284
256 256 255 253 251 250 249 250 251 253 256 258 260 262 264 264 263 263 263 264 265 266 268 271 275 278 278 278 277 277 277 276 274 272 271 274 276 277 277 277 277 278 278 278 278 278 279 280 280 281 282 283
Height
5824 5825 5826 5827 5827 5828 5829 5830 5831 5831 5832 5833 5834 5835 5836 5837 5837 5837 5838 5838 5839 5839 5839 5840 5841 5841 5842 5842 5843 5843 5843 5844 5844 5844 5845 5845 5846 5846 5845 5845 5845 5845 5845 5845 5845 5845 5845 5845 5844 5844 5844 5844
5820 5822 5823 5823 5824 5825 5826 5826 5827 5828 5829 5830 5831 5832 5833 5833 5834 5834 5835 5835 5836 5836 5836 5836 5837 5837 5838 5838 5839 5839 5840 5840 5840 5841 5842 5842 5843 5843 5842 5842 5842 5842 5842 5842 5842 5842 5841 5841 5841 5840 5840 5840
5816 5818 5820 5820 5821 5822 5823 5823 5823 5824 5825 5827 5828 5829 5829 5830 5831 5831 5832 5832 5833 5833 5833 5833 5833 5833 5833 5834 5835 5836 5836 5837 5837 5838 5838 5839 5839 5839 5839 5839 5839 5839 5839 5839 5838 5838 5838 5837 5837 5837 5836 5836
5812 5814 5815 5816 5817 5819 5819 5819 5820 5821 5822 5823 5824 5825 5826 5826 5827 5828 5829 5829 5830 5830 5829 5829 5829 5829 5830 5831 5832 5833 5833 5833 5834 5834 5834 5835 5835 5835 5835 5835 5835 5835 5835 5835 5835 5834 5834 5834 5833 5833 5833 5833
5808 5810 5811 5812 5814 5815 5815 5816 5817 5818 5819 5820 5821 5821 5822 5823 5824 5825 5825 5825 5826 5826 5825 5825 5825 5826 5826 5827 5828 5829 5829 5829 5830 5830 5830 5831 5831 5832 5831 5831 5831 5831 5831 5831 5831 5830 5830 5830 5829 5829 5829 5829
5805 5806 5807 5809 5810 5812 5812 5813 5814 5815 5815 5816 5817 5818 5818 5819 5820 5820 5821 5821 5821 5821 5821 5821 5821 5822 5822 5823 5824 5825 5825 5825 5826 5826 5826 5827 5827 5828 5827 5827 5827 5827 5827 5826 5826 5826 5826 5826 5826 5825 5825 5825
5801 5802 5803 5805 5807 5808 5809 5809 5810 5811 5811 5813 5813 5814 5814 5815 5815 5816 5816 5817 5817 5817 5816 5816 5817 5817 5818 5819 5819 5820 5821 5822 5822 5822 5822 5823 5823 5824 5823 5823 5823 5822 5822 5822 5822 5822 5822 5822 5821 5821 5821 5820
5797 5798 5799 5801 5802 5803 5804 5805 5806 5807 5808 5809 5809 5810 5810 5811 5811 5811 5812 5812 5812 5812 5812 5812 5813 5813 5814 5815 5815 5816 5817 5817 5818 5818 5818 5819 5819 5819 5819 5819 5818 5818 5818 5818 5817 5817 5817 5817 5817 5816 5816 5816
5793 5794 5795 5796 5797 5798 5800 5801 5802 5803 5804 5805 5805 5806 5806 5807 5807 5807 5808 5808 5808 5808 5808 5808 5809 5810 5811 5811 5812 5812 5813 5813 5814 5814 5814 5815 5815 5815 5815 5815 5814 5814 5814 5814 5813 5813 5813 5812 5812 5812 5811 5811
5789 5790 5791 5792 5793 5795 5796 5797 5798 5799 5800 5800 5801 5801 5802 5802 5803 5803 5803 5803 5803 5803 5803 5804 5804 5805 5806 5807 5808 5808 5809 5809 5810 5810 5810 5810 5810 5810 5810 5810 5810 5810 5810 5809 5809 5809 5808 5808 5808 5807 5807 5807
5785 5786 5787 5788 5790 5791 5792 5793 5795 5795 5795 5796 5797 5797 5798 5798 5798 5798 5799 5799 5799 5799 5799 5800 5800 5800 5801 5802 5803 5804 5805 5805 5805 5805 5805 5805 5805 5806 5806 5806 5805 5805 5805 5804 5804 5804 5804 5803 5803 5803 5802 5802
5781 5782 5783 5784 5785 5787 5788 5789 5790 5790 5791 5792 5792 5793 5793 5793 5794 5794 5794 5794 5794 5794 5795 5795 5796 5796 5796 5797 5798 5799 5800 5800 5800 5800 5800 5800 5800 5800 5800 5800 5800 5800 5800 5799 5799 5799 5799 5799 5798 5798 5797 5797
5776 5778 5779 5780 5781 5782 5783 5784 5785 5785 5787 5787 5788 5788 5788 5789 5789 5789 5789 5789 5789 5789 5790 5791 5791 5791 5792 5793 5794 5794 5794 5794 5795 5795 5795 5795 5795 5795 5795 5795 5795 5795 5794 5794 5794 5794 5793 5793 5793 5792 5792 5792
5771 5773 5775 5776 5777 5778 5779 5780 5780 5781 5782 5783 5783 5783 5784 5784 5784 5785 5784 5784 5784 5784 5785 5786 5786 5787 5787 5789 5789 5790 5790 5790 5789 5790 5790 5790 5790 5790 5790 5790 5789 5789 5789 5789 5788 5788 5788 5788 5787 5787 5786 5786
5767 5768 5769 5772 5773 5774 5774 5776 5776 5776 5777 5778 5778 5778 5779 5779 5780 5780 5780 5779 5779 5779 5780 5781 5782 5782 5783 5784 5785 5785 5785 5785 5785 5785 5785 5785 5784 5784 5784 5784 5784 5784 5783 5783 5783 5783 5782 5782 5781 5781 5780 5780
5762 5763 5764 5766 5768 5769 5770 5771 5771 5772 5773 5773 5773 5773 5774 5774 5775 5775 5775 5775 5775 5775 5775 5776 5776 5777 5778 5779 5780 5780 5780 5780 5780 5780 5780 5780 5780 5779 5779 5779 5778 5778 5778 5778 5778 5777 5776 5776 5775 5775 5774 5773
5758 5759 5760 5761 5763 5765 5766 5767 5767 5768 5768 5768 5768 5769 5769 5769 5770 5770 5770 5770 5770 5770 5771 5771 5771 5772 5773 5775 5775 5775 5775 5775 5776 5776 5776 5776 5775 5775 5774 5774 5773 5773 5772 5772 5771 5771 5770 5769 5769 5768 5768 5767
5753 5754 5755 5757 5759 5760 5761 5762 5763 5763 5764 5764 5764 5764 5764 5765 5765 5765 5766 5766 5765 5765 5766 5766 5767 5768 5768 5769 5769 5769 5769 5770 5771 5771 5771 5771 5770 5769 5769 5768 5767 5767 5767 5766 5765 5765 5764 5764 5763 5762 5762 5761
5748 5749 5751 5753 5755 5756 5756 5757 5758 5759 5759 5760 5760 5760 5760 5760 5760 5760 5760 5761 5761 5760 5760 5761 5761 5762 5763 5763 5763 5763 5764 5764 5765 5765 5765 5765 5764 5763 5763 5762 5761 5761 5761 5760 5759 5759 5758 5757 5757 5756 5755 5755
5743 5745 5747 5749 5751 5752 5751 5751 5753 5754 5755 5756 5756 5756 5756 5755 5755 5755 5755 5755 5756 5756 5755 5755 5756 5757 5757 5758 5758 5758 5758 5758 5759 5759 5759 5759 5758 5757 5756 5755 5755 5755 5755 5755 5754 5753 5752 5751 5750 5749 5749 5748
5738 5740 5742 5744 5745 5746 5746 5746 5748 5749 5750 5751 5751 5751 5751 5751 5750 5750 5750 5750 5750 5751 5750 5751 5751 5751 5751 5752 5753 5753 5752 5752 5753 5754 5753 5753 5753 5752 5750 5749 5749 5748 5749 5749 5748 5747 5746 5745 5744 5743 5742 5742
5733 5735 5737 5738 5738 5739 5740 5741 5743 5744 5745 5745 5746 5747 5747 5746 5745 5744 5745 5745 5745 5745 5745 5746 5746 5746 5745 5746 5747 5747 5747 5746 5747 5748 5747 5747 5747 5746 5745 5744 5743 5742 5743 5742 5742 5741 5740 5739 5737 5736 5736 5735
5727 5729 5731 5731 5732 5734 5736 5736 5738 5739 5739 5740 5741 5741 5740 5740 5739 5739 5739 5740 5740 5740 5740 5740 5740 5740 5740 5740 5741 5741 5741 5740 5740 5741 5741 5741 5740 5740 5739 5738 5736 5736 5736 5736 5735 5735 5733 5732 5731 5730 5729 5729
5722 5723 5724 5725 5727 5728 5730 5731 5732 5733 5733 5734 5734 5734 5734 5734 5734 5734 5734 5734 5734 5734 5734 5734 5734 5735 5735 5735 5735 5735 5735 5734 5734 5734 5734 5734 5734 5733 5732 5731 5730 5730 5730 5729 5728 5728 5726 5725 5724 5723 5723 5722
5716 5718 5718 5720 5721 5723 5724 5725 5726 5727 5727 5728 5728 5728 5729 5729 5729 5729 5728 5728 5728 5728 5728 5728 5728 5729 5729 5730 5729 5729 5729 5728 5728 5728 5728 5727 5727 5726 5725 5724 5723 5723 5723 5722 5721 5720 5719 5718 5717 5717 5716 5716
5710 5712 5713 5714 5715 5717 5718 5719 5720 5720 5721 5721 5722 5723 5723 5723 5723 5724 5723 5723 5723 5722 5722 5722 5723 5723 5723 5723 5723 5723 5723 5722 5721 5721 5721 5721 5720 5719 5718 5717 5716 5715 5715 5714 5713 5713 5711 5711 5710 5709 5709 5708
5703 5705 5707 5708 5709 5711 5712 5713 5714 5715 5715 5716 5716 5717 5717 5717 5718 5718 5718 5718 5717 5716 5716 5716 5717 5717 5717 5717 5717 5718 5718 5717 5715 5715 5714 5714 5714 5713 5712 5710 5709 5708 5707 5706 5705 5705 5704 5704 5703 5702 5702 5701
5698 5700 5701 5702 5704 5705 5707 5708 5709 5709 5709 5710 5710 5710 5711 5711 5713 5714 5713 5712 5711 5709 5709 5709 5710 5710 5711 5711 5712 5712 5712 5711 5710 5708 5707 5707 5707 5706 5705 5704 5703 5701 5700 5699 5698 5697 5696 5696 5695 5694 5694 5694
5693 5694 5695 5696 5698 5699 5701 5701 5702 5703 5703 5703 5704 5704 5705 5705 5707 5707 5706 5705 5704 5702 5702 5703 5703 5703 5703 5704 5704 5705 5705 5704 5703 5702 5700 5700 5700 5699 5699 5698 5696 5695 5694 5692 5691 5690 5689 5688 5687 5686 5686 5686
5686 5688 5690 5691 5692 5693 5694 5694 5695 5696 5696 5697 5698 5698 5699 5699 5699 5699 5699 5698 5697 5696 5696 5696 5697 5696 5696 5696 5696 5696 5697 5697 5696 5696 5694 5694 5693 5693 5692 5691 5690 5689 5687 5686 5685 5683 5682 5681 5679 5678 5677 5676
5680 5681 5683 5684 5686 5687 5688 5688 5689 5690 5691 5692 5692 5693 5693 5693 5692 5692 5692 5691 5690 5689 5689 5689 5690 5689 5689 5689 5689 5689 5689 5689 5689 5689 5688 5688 5687 5686 5685 5684 5683 5682 5681 5680 5678 5677 5675 5673 5672 5670 5668 5667